Time,TemperatureF,DewpointF,PressureIn,WindDirection,WindDirectionDegrees,WindSpeedMPH,WindSpeedGustMPH,Humidity,HourlyPrecipIn,Conditions,Clouds,dailyrainin,SoftwareType,DateUTC
2013-02-15 00:00:00,37.6,31.7,29.80,SW,218,6.0,9.0,79,0.00,RA,,0.00,WeatherDisplay:10.37,2013-02-15 05:00:00,
2013-02-15 00:05:00,37.2,31.3,29.80,WSW,239,5.0,10.0,79,0.00,RA,,0.00,WeatherDisplay:10.37,2013-02-15 05:05:00,
2013-02-15 00:10:00,37.2,31.3,29.80,WNW,285,5.0,15.0,79,0.00,CLR,,0.00,WeatherDisplay:10.37,2013-02-15 05:10:00,
2013-02-15 00:15:00,37.0,30.8,29.80,WSW,240,6.0,13.0,78,0.00,CLR,,0.00,WeatherDisplay:10.37,2013-02-15 05:15:00,
2013-02-15 00:20:00,36.9,30.6,29.80,WSW,238,6.0,10.0,78,0.00,CLR,,0.00,WeatherDisplay:10.37,2013-02-15 05:20:00,
2013-02-15 00:25:00,36.7,30.5,29.80,SW,228,6.0,10.0,78,0.00,CLR,,0.00,WeatherDisplay:10.37,2013-02-15 05:25:00,
2013-02-15 00:30:00,36.7,30.5,29.80,SW,233,6.0,14.0,78,0.00,CLR,,0.00,WeatherDisplay:10.37,2013-02-15 05:30:00,
2013-02-15 00:35:00,36.5,30.0,29.80,WSW,240,6.0,12.0,77,0.00,CLR,,0.00,WeatherDisplay:10.37,2013-02-15 05:35:00,
2013-02-15 00:40:00,36.5,30.0,29.81,SW,232,6.0,12.0,77,0.00,CLR,,0.00,WeatherDisplay:10.37,2013-02-15 05:40:00,
2013-02-15 00:45:00,36.5,30.0,29.81,SW,226,5.0,11.0,77,0.00,CLR,,0.00,WeatherDisplay:10.37,2013-02-15 05:45:00,
2013-02-15 00:50:00,36.5,30.0,29.81,SW,229,5.0,17.0,77,0.00,CLR,,0.00,WeatherDisplay:10.37,2013-02-15 05:50:00,
2013-02-15 00:55:00,36.5,30.0,29.81,WSW,244,7.0,16.0,77,0.00,CLR,,0.00,WeatherDisplay:10.37,2013-02-15 05:55:00,
2013-02-15 01:00:00,36.5,29.7,29.80,SW,236,7.0,16.0,76,0.00,CLR,,0.00,WeatherDisplay:10.37,2013-02-15 06:00:00,
2013-02-15 01:05:00,36.6,29.8,29.80,SW,228,7.0,13.0,76,0.00,CLR,,0.00,WeatherDisplay:10.37,2013-02-15 06:05:00,
2013-02-15 01:10:00,36.6,29.7,29.80,WSW,241,6.0,16.0,76,0.00,CLR,,0.00,WeatherDisplay:10.37,2013-02-15 06:10:00,
2013-02-15 01:15:00,36.7,29.8,29.80,SW,234,7.0,8.0,76,0.00,CLR,,0.00,WeatherDisplay:10.37,2013-02-15 06:15:00,
2013-02-15 01:20:00,36.7,29.8,29.81,SW,229,6.0,18.0,76,0.00,CLR,,0.00,WeatherDisplay:10.37,2013-02-15 06:20:00,
2013-02-15 01:30:00,36.7,29.5,29.81,SSW,205,8.0,15.0,75,0.00,CLR,,0.00,WeatherDisplay:10.37,2013-02-15 06:30:00,
2013-02-15 01:35:00,36.7,29.5,29.81,SW,231,8.0,15.0,75,0.00,CLR,,0.00,WeatherDisplay:10.37,2013-02-15 06:35:00,
2013-02-15 01:40:00,36.7,29.5,29.79,West,261,7.0,13.0,75,0.00,CLR,,0.00,WeatherDisplay:10.37,2013-02-15 06:40:00,
2013-02-15 01:45:00,36.7,29.5,29.79,SW,217,6.0,12.0,75,0.00,CLR,,0.00,WeatherDisplay:10.37,2013-02-15 06:45:00,
2013-02-15 01:50:00,36.5,29.3,29.79,SW,214,7.0,16.0,75,0.00,CLR,,0.00,WeatherDisplay:10.37,2013-02-15 06:50:00,
2013-02-15 01:55:00,36.5,29.3,29.79,SW,235,7.0,14.0,75,0.00,CLR,,0.00,WeatherDisplay:10.37,2013-02-15 06:55:00,
2013-02-15 02:00:00,36.5,29.7,29.81,WSW,245,7.0,19.0,76,0.00,CLR,,0.00,WeatherDisplay:10.37,2013-02-15 07:00:00,
2013-02-15 02:05:00,36.3,29.5,29.81,SSW,202,6.0,11.0,76,0.00,CLR,,0.00,WeatherDisplay:10.37,2013-02-15 07:05:00,
2013-02-15 02:10:00,36.3,29.5,29.81,South,176,7.0,9.0,76,0.00,CLR,,0.00,WeatherDisplay:10.37,2013-02-15 07:10:00,
2013-02-15 02:15:00,36.1,29.6,29.81,South,180,7.0,7.0,77,0.00,CLR,,0.00,WeatherDisplay:10.37,2013-02-15 07:15:00,
2013-02-15 02:20:00,36.0,29.5,29.81,South,185,6.0,12.0,77,0.00,CLR,,0.00,WeatherDisplay:10.37,2013-02-15 07:20:00,
2013-02-15 02:25:00,36.0,29.4,29.81,WSW,238,6.0,20.0,77,0.00,CLR,,0.00,WeatherDisplay:10.37,2013-02-15 07:25:00,
2013-02-15 02:30:00,35.8,29.3,29.81,SSW,212,6.0,20.0,77,0.00,CLR,,0.00,WeatherDisplay:10.37,2013-02-15 07:30:00,
2013-02-15 02:35:00,35.8,29.3,29.81,SW,214,7.0,9.0,77,0.00,CLR,,0.00,WeatherDisplay:10.37,2013-02-15 07:35:00,
2013-02-15 02:40:00,35.8,29.3,29.81,WSW,244,7.0,10.0,77,0.00,CLR,,0.00,WeatherDisplay:10.37,2013-02-15 07:40:00,
2013-02-15 02:45:00,35.8,29.3,29.81,WSW,254,7.0,10.0,77,0.00,CLR,,0.00,WeatherDisplay:10.37,2013-02-15 07:45:00,
2013-02-15 02:50:00,35.6,29.1,29.81,WSW,244,7.0,15.0,77,0.00,CLR,,0.00,WeatherDisplay:10.37,2013-02-15 07:50:00,
2013-02-15 02:55:00,35.6,29.1,29.81,WSW,241,6.0,12.0,77,0.00,CLR,,0.00,WeatherDisplay:10.37,2013-02-15 07:55:00,
2013-02-15 03:00:00,35.4,28.9,29.81,WSW,258,7.0,12.0,77,0.00,CLR,,0.00,WeatherDisplay:10.37,2013-02-15 08:00:00,
2013-02-15 03:05:00,35.4,28.9,29.81,WSW,250,7.0,11.0,77,0.00,CLR,,0.00,WeatherDisplay:10.37,2013-02-15 08:05:00,
2013-02-15 03:10:00,35.4,28.9,29.81,SW,230,7.0,11.0,77,0.00,CLR,,0.00,WeatherDisplay:10.37,2013-02-15 08:10:00,
2013-02-15 03:15:00,35.2,28.8,29.81,SW,224,6.0,9.0,77,0.00,CLR,,0.00,WeatherDisplay:10.37,2013-02-15 08:15:00,
2013-02-15 03:20:00,35.2,28.8,29.81,SW,220,5.0,12.0,77,0.00,CLR,,0.00,WeatherDisplay:10.37,2013-02-15 08:20:00,
2013-02-15 03:25:00,35.1,28.3,29.81,SSW,203,6.0,14.0,76,0.00,CLR,,0.00,WeatherDisplay:10.37,2013-02-15 08:25:00,
2013-02-15 03:30:00,35.1,28.3,29.81,WSW,243,7.0,14.0,76,0.00,CLR,,0.00,WeatherDisplay:10.37,2013-02-15 08:30:00,
2013-02-15 03:35:00,35.1,28.3,29.81,WSW,246,8.0,20.0,76,0.00,CLR,,0.00,WeatherDisplay:10.37,2013-02-15 08:35:00,
2013-02-15 03:40:00,35.1,28.3,29.82,WSW,250,8.0,11.0,76,0.00,CLR,,0.00,WeatherDisplay:10.37,2013-02-15 08:40:00,
2013-02-15 03:45:00,35.1,28.3,29.82,WSW,248,7.0,8.0,76,0.00,CLR,,0.00,WeatherDisplay:10.37,2013-02-15 08:45:00,
2013-02-15 03:50:00,35.1,28.3,29.82,SW,234,7.0,18.0,76,0.00,CLR,,0.00,WeatherDisplay:10.37,2013-02-15 08:50:00,
2013-02-15 03:55:00,35.1,28.3,29.82,WSW,237,7.0,13.0,76,0.00,CLR,,0.00,WeatherDisplay:10.37,2013-02-15 08:55:00,
2013-02-15 04:00:00,35.0,28.2,29.81,SW,229,7.0,15.0,76,0.00,CLR,,0.00,WeatherDisplay:10.37,2013-02-15 09:00:00,
2013-02-15 04:05:00,34.9,28.1,29.81,WSW,243,8.0,12.0,76,0.00,CLR,,0.00,WeatherDisplay:10.37,2013-02-15 09:05:00,
2013-02-15 04:10:00,35.1,28.3,29.81,WSW,238,7.0,12.0,76,0.00,CLR,,0.00,WeatherDisplay:10.37,2013-02-15 09:10:00,
2013-02-15 04:15:00,34.9,28.1,29.81,WSW,247,7.0,13.0,76,0.00,CLR,,0.00,WeatherDisplay:10.37,2013-02-15 09:15:00,
2013-02-15 04:20:00,35.0,28.2,29.82,West,281,7.0,17.0,76,0.00,CLR,,0.00,WeatherDisplay:10.37,2013-02-15 09:20:00,
2013-02-15 04:25:00,34.9,28.1,29.82,West,267,7.0,8.0,76,0.00,CLR,,0.00,WeatherDisplay:10.37,2013-02-15 09:25:00,
2013-02-15 04:30:00,34.9,28.1,29.82,SW,236,7.0,10.0,76,0.00,CLR,,0.00,WeatherDisplay:10.37,2013-02-15 09:30:00,
2013-02-15 04:35:00,34.9,27.8,29.82,SW,229,6.0,22.0,75,0.00,CLR,,0.00,WeatherDisplay:10.37,2013-02-15 09:35:00,
2013-02-15 04:40:00,34.9,28.1,29.83,SW,230,6.0,10.0,76,0.00,CLR,,0.00,WeatherDisplay:10.37,2013-02-15 09:40:00,
2013-02-15 04:45:00,34.9,28.1,29.83,WSW,237,7.0,10.0,76,0.00,CLR,,0.00,WeatherDisplay:10.37,2013-02-15 09:45:00,
2013-02-15 04:50:00,34.8,28.1,29.83,WSW,249,7.0,13.0,76,0.00,CLR,,0.00,WeatherDisplay:10.37,2013-02-15 09:50:00,
2013-02-15 04:55:00,34.9,28.1,29.83,SW,231,6.0,12.0,76,0.00,CLR,,0.00,WeatherDisplay:10.37,2013-02-15 09:55:00,
2013-02-15 05:00:00,34.9,28.1,29.84,SW,232,6.0,10.0,76,0.00,CLR,,0.00,WeatherDisplay:10.37,2013-02-15 10:00:00,
2013-02-15 05:05:00,34.7,27.9,29.84,WSW,256,6.0,16.0,76,0.00,CLR,,0.00,WeatherDisplay:10.37,2013-02-15 10:05:00,
2013-02-15 05:10:00,34.7,27.9,29.84,SW,215,6.0,16.0,76,0.00,CLR,,0.00,WeatherDisplay:10.37,2013-02-15 10:10:00,
2013-02-15 05:15:00,34.7,27.9,29.84,SSE,165,6.0,6.0,76,0.00,CLR,,0.00,WeatherDisplay:10.37,2013-02-15 10:15:00,
2013-02-15 05:20:00,34.7,27.9,29.84,South,188,6.0,13.0,76,0.00,CLR,,0.00,WeatherDisplay:10.37,2013-02-15 10:20:00,
2013-02-15 05:25:00,34.7,28.2,29.84,SW,216,7.0,13.0,77,0.00,CLR,,0.00,WeatherDisplay:10.37,2013-02-15 10:25:00,
2013-02-15 05:30:00,34.5,28.1,29.84,SW,222,6.0,12.0,77,0.00,CLR,,0.00,WeatherDisplay:10.37,2013-02-15 10:30:00,
2013-02-15 05:35:00,34.5,28.1,29.84,SW,230,6.0,14.0,77,0.00,CLR,,0.00,WeatherDisplay:10.37,2013-02-15 10:35:00,
2013-02-15 05:40:00,34.3,27.9,29.85,SW,224,5.0,8.0,77,0.00,CLR,,0.00,WeatherDisplay:10.37,2013-02-15 10:40:00,
2013-02-15 05:45:00,34.3,27.9,29.85,WSW,244,5.0,18.0,77,0.00,CLR,,0.00,WeatherDisplay:10.37,2013-02-15 10:45:00,
2013-02-15 05:50:00,34.3,27.9,29.85,WSW,247,6.0,18.0,77,0.00,CLR,,0.00,WeatherDisplay:10.37,2013-02-15 10:50:00,
2013-02-15 05:55:00,34.3,27.9,29.85,WSW,255,6.0,18.0,77,0.00,CLR,,0.00,WeatherDisplay:10.37,2013-02-15 10:55:00,
2013-02-15 06:00:00,34.3,27.9,29.85,WSW,258,6.0,21.0,77,0.00,CLR,,0.00,WeatherDisplay:10.37,2013-02-15 11:00:00,
2013-02-15 06:05:00,34.3,27.9,29.85,WSW,241,6.0,21.0,77,0.00,CLR,,0.00,WeatherDisplay:10.37,2013-02-15 11:05:00,
2013-02-15 06:10:00,34.3,28.2,29.85,WSW,243,6.0,13.0,78,0.00,CLR,,0.00,WeatherDisplay:10.37,2013-02-15 11:10:00,
2013-02-15 06:15:00,34.3,28.2,29.85,WSW,251,6.0,13.0,78,0.00,CLR,,0.00,WeatherDisplay:10.37,2013-02-15 11:15:00,
2013-02-15 06:20:00,34.3,28.2,29.87,WSW,246,6.0,11.0,78,0.00,CLR,,0.00,WeatherDisplay:10.37,2013-02-15 11:20:00,
2013-02-15 06:25:00,34.3,28.2,29.87,WSW,238,6.0,13.0,78,0.00,CLR,,0.00,WeatherDisplay:10.37,2013-02-15 11:25:00,
2013-02-15 06:30:00,34.2,28.0,29.87,SW,229,5.0,13.0,78,0.00,CLR,,0.00,WeatherDisplay:10.37,2013-02-15 11:30:00,
2013-02-15 06:40:00,34.1,28.0,29.88,WSW,243,6.0,17.0,78,0.00,CLR,,0.00,WeatherDisplay:10.37,2013-02-15 11:40:00,
2013-02-15 06:45:00,34.0,27.8,29.88,SSW,213,6.0,17.0,78,0.00,CLR,,0.00,WeatherDisplay:10.37,2013-02-15 11:45:00,
2013-02-15 06:50:00,34.0,27.8,29.88,SW,224,6.0,14.0,78,0.00,CLR,,0.00,WeatherDisplay:10.37,2013-02-15 11:50:00,
2013-02-15 06:55:00,34.0,27.8,29.88,WSW,250,6.0,9.0,78,0.00,CLR,,0.00,WeatherDisplay:10.37,2013-02-15 11:55:00,
2013-02-15 07:00:00,33.8,27.7,29.89,WSW,253,5.0,11.0,78,0.00,CLR,,0.00,WeatherDisplay:10.37,2013-02-15 12:00:00,
2013-02-15 07:05:00,33.8,27.7,29.89,West,269,5.0,13.0,78,0.00,CLR,,0.00,WeatherDisplay:10.37,2013-02-15 12:05:00,
2013-02-15 07:10:00,33.7,27.9,29.89,WSW,243,5.0,11.0,79,0.00,CLR,,0.00,WeatherDisplay:10.37,2013-02-15 12:10:00,
2013-02-15 07:15:00,33.7,27.9,29.89,SW,235,5.0,6.0,79,0.00,CLR,,0.00,WeatherDisplay:10.37,2013-02-15 12:15:00,
2013-02-15 07:20:00,33.7,27.9,29.89,WSW,253,5.0,9.0,79,0.00,CLR,,0.00,WeatherDisplay:10.37,2013-02-15 12:20:00,
2013-02-15 07:25:00,33.8,28.0,29.89,WSW,247,5.0,9.0,79,0.00,CLR,,0.00,WeatherDisplay:10.37,2013-02-15 12:25:00,
2013-02-15 07:30:00,33.8,28.0,29.89,West,259,5.0,8.0,79,0.00,CLR,,0.00,WeatherDisplay:10.37,2013-02-15 12:30:00,
2013-02-15 07:35:00,33.7,27.9,29.89,West,276,5.0,10.0,79,0.00,CLR,,0.00,WeatherDisplay:10.37,2013-02-15 12:35:00,
2013-02-15 07:40:00,33.6,27.8,29.90,West,259,5.0,10.0,79,0.00,CLR,,0.00,WeatherDisplay:10.37,2013-02-15 12:40:00,
2013-02-15 07:45:00,33.6,27.8,29.90,SW,233,5.0,6.0,79,0.00,CLR,,0.00,WeatherDisplay:10.37,2013-02-15 12:45:00,
2013-02-15 07:50:00,33.6,27.8,29.90,SSW,203,5.0,8.0,79,0.00,CLR,,0.00,WeatherDisplay:10.37,2013-02-15 12:50:00,
2013-02-15 07:55:00,33.6,27.8,29.90,West,263,5.0,8.0,79,0.00,CLR,,0.00,WeatherDisplay:10.37,2013-02-15 12:55:00,
2013-02-15 08:05:00,33.6,27.5,29.92,West,268,6.0,9.0,78,0.00,CLR,,0.00,WeatherDisplay:10.37,2013-02-15 13:05:00,
2013-02-15 17:25:00,23.4,16.6,30.06,WSW,250,0.0,3.0,75,0.00,CLR,,0.00,WeatherDisplay:10.37,2013-02-15 22:25:00,
2013-02-15 17:30:00,23.4,16.6,30.06,SSW,213,0.0,0.0,75,0.00,CLR,,0.00,WeatherDisplay:10.37,2013-02-15 22:30:00,
2013-02-15 19:05:00,21.6,15.2,30.05,West,266,0.0,0.0,76,0.00,CLR,,0.00,WeatherDisplay:10.37,2013-02-16 00:05:00,
2013-02-15 19:10:00,21.6,15.2,30.05,West,275,1.0,1.0,76,0.00,CLR,,0.00,WeatherDisplay:10.37,2013-02-16 00:10:00,
2013-02-15 19:15:00,21.7,15.3,30.04,ESE,122,1.0,2.0,76,0.00,CLR,,0.00,WeatherDisplay:10.37,2013-02-16 00:15:00,
2013-02-15 19:20:00,21.9,15.5,30.04,SSE,151,1.0,2.0,76,0.00,CLR,,0.00,WeatherDisplay:10.37,2013-02-16 00:20:00,
2013-02-15 19:25:00,21.9,15.5,30.04,SSE,158,1.0,2.0,76,0.00,CLR,,0.00,WeatherDisplay:10.37,2013-02-16 00:25:00,
2013-02-15 19:30:00,21.9,15.5,30.04,SSE,156,0.0,1.0,76,0.00,CLR,,0.00,WeatherDisplay:10.37,2013-02-16 00:30:00,
2013-02-15 19:35:00,22.1,15.7,30.04,SSE,147,0.0,0.0,76,0.00,CLR,,0.00,WeatherDisplay:10.37,2013-02-16 00:35:00,
2013-02-15 19:40:00,21.9,15.2,30.04,SE,135,0.0,0.0,75,0.00,CLR,,0.00,WeatherDisplay:10.37,2013-02-16 00:40:00,
2013-02-15 19:45:00,22.1,15.4,30.04,SE,136,0.0,0.0,75,0.00,CLR,,0.00,WeatherDisplay:10.37,2013-02-16 00:45:00,
2013-02-15 19:50:00,22.1,15.4,30.04,SE,138,0.0,2.0,75,0.00,CLR,,0.00,WeatherDisplay:10.37,2013-02-16 00:50:00,
2013-02-15 19:55:00,22.1,15.4,30.04,SE,128,0.0,3.0,75,0.00,CLR,,0.00,WeatherDisplay:10.37,2013-02-16 00:55:00,
2013-02-15 20:00:00,22.3,15.6,30.04,SE,142,2.0,3.0,75,0.00,CLR,,0.00,WeatherDisplay:10.37,2013-02-16 01:00:00,
2013-02-15 20:05:00,21.9,14.9,30.04,SE,146,3.0,3.0,74,0.00,CLR,,0.00,WeatherDisplay:10.37,2013-02-16 01:05:00,
2013-02-15 20:10:00,21.9,15.2,30.04,NW,317,2.0,2.0,75,0.00,CLR,,0.00,WeatherDisplay:10.37,2013-02-16 01:10:00,
2013-02-15 20:15:00,21.9,15.2,30.04,SW,222,1.0,2.0,75,0.00,CLR,,0.00,WeatherDisplay:10.37,2013-02-16 01:15:00,
2013-02-15 20:20:00,21.9,15.2,30.04,SSW,200,1.0,1.0,75,0.00,CLR,,0.00,WeatherDisplay:10.37,2013-02-16 01:20:00,
2013-02-15 20:25:00,21.9,15.2,30.04,SSW,193,1.0,1.0,75,0.00,CLR,,0.00,WeatherDisplay:10.37,2013-02-16 01:25:00,
2013-02-15 20:30:00,21.9,15.2,30.04,SSE,160,1.0,2.0,75,0.00,CLR,,0.00,WeatherDisplay:10.37,2013-02-16 01:30:00,
2013-02-15 20:35:00,22.1,15.4,30.04,SSE,147,1.0,2.0,75,0.00,CLR,,0.00,WeatherDisplay:10.37,2013-02-16 01:35:00,
2013-02-15 20:40:00,22.6,15.6,30.04,SE,139,1.0,1.0,74,0.00,CLR,,0.00,WeatherDisplay:10.37,2013-02-16 01:40:00,
2013-02-15 20:45:00,23.0,16.3,30.04,SE,126,1.0,2.0,75,0.00,CLR,,0.00,WeatherDisplay:10.37,2013-02-16 01:45:00,
2013-02-15 20:50:00,23.4,16.3,30.04,SE,126,1.0,2.0,74,0.00,CLR,,0.00,WeatherDisplay:10.37,2013-02-16 01:50:00,
2013-02-15 20:55:00,23.4,16.3,30.04,SSE,147,1.0,2.0,74,0.00,CLR,,0.00,WeatherDisplay:10.37,2013-02-16 01:55:00,
2013-02-15 21:00:00,23.4,16.0,30.04,South,187,1.0,0.0,73,0.00,CLR,,0.00,WeatherDisplay:10.37,2013-02-16 02:00:00,
2013-02-15 21:05:00,23.7,16.3,30.04,SW,224,0.0,0.0,73,0.00,CLR,,0.00,WeatherDisplay:10.37,2013-02-16 02:05:00,
2013-02-15 21:10:00,23.9,16.5,30.04,SW,229,0.0,0.0,73,0.00,CLR,,0.00,WeatherDisplay:10.37,2013-02-16 02:10:00,
2013-02-15 21:15:00,24.1,16.4,30.04,SSW,200,0.0,2.0,72,0.00,CLR,,0.00,WeatherDisplay:10.37,2013-02-16 02:15:00,
2013-02-15 21:20:00,24.3,16.5,30.04,SSE,158,1.0,2.0,72,0.00,CLR,,0.00,WeatherDisplay:10.37,2013-02-16 02:20:00,
2013-02-15 21:25:00,24.6,16.6,30.04,SE,143,1.0,2.0,71,0.00,CLR,,0.00,WeatherDisplay:10.37,2013-02-16 02:25:00,
2013-02-15 21:30:00,24.8,16.7,30.04,SSE,150,0.0,1.0,71,0.00,CLR,,0.00,WeatherDisplay:10.37,2013-02-16 02:30:00,
2013-02-15 21:35:00,25.3,17.2,30.04,SSE,159,0.0,1.0,71,0.00,CLR,,0.00,WeatherDisplay:10.37,2013-02-16 02:35:00,
2013-02-15 21:40:00,25.7,17.6,30.04,South,173,0.0,1.0,71,0.00,CLR,,0.00,WeatherDisplay:10.37,2013-02-16 02:40:00,
2013-02-15 21:45:00,26.1,17.6,30.04,South,180,0.0,1.0,70,0.00,CLR,,0.00,WeatherDisplay:10.37,2013-02-16 02:45:00,
2013-02-15 21:50:00,26.4,17.6,30.04,South,183,0.0,2.0,69,0.00,CLR,,0.00,WeatherDisplay:10.37,2013-02-16 02:50:00,
2013-02-15 21:55:00,26.6,17.8,30.04,South,181,0.0,2.0,69,0.00,CLR,,0.00,WeatherDisplay:10.37,2013-02-16 02:55:00,
2013-02-15 22:00:00,26.6,17.5,30.04,South,181,0.0,0.0,68,0.00,CLR,,0.00,WeatherDisplay:10.37,2013-02-16 03:00:00,
2013-02-15 22:05:00,27.0,17.5,30.04,South,190,1.0,2.0,67,0.00,CLR,,0.00,WeatherDisplay:10.37,2013-02-16 03:05:00,
2013-02-15 22:10:00,27.5,17.6,30.04,South,191,1.0,2.0,66,0.00,CLR,,0.00,WeatherDisplay:10.37,2013-02-16 03:10:00,
2013-02-15 22:15:00,27.7,17.4,30.04,South,187,1.0,0.0,65,0.00,CLR,,0.00,WeatherDisplay:10.37,2013-02-16 03:15:00,
2013-02-15 22:20:00,28.0,17.8,30.04,South,171,1.0,2.0,65,0.00,CLR,,0.00,WeatherDisplay:10.37,2013-02-16 03:20:00,
2013-02-15 22:25:00,28.4,17.8,30.04,SSE,160,0.0,2.0,64,0.00,CLR,,0.00,WeatherDisplay:10.37,2013-02-16 03:25:00,
2013-02-15 22:30:00,28.4,17.4,30.04,SSE,164,1.0,2.0,63,0.00,CLR,,0.00,WeatherDisplay:10.37,2013-02-16 03:30:00,
2013-02-15 22:35:00,28.9,17.9,30.03,SSE,161,1.0,2.0,63,0.00,CLR,,0.00,WeatherDisplay:10.37,2013-02-16 03:35:00,
2013-02-15 22:40:00,29.5,17.7,30.03,South,176,1.0,2.0,61,0.00,CLR,,0.00,WeatherDisplay:10.37,2013-02-16 03:40:00,
2013-02-15 22:45:00,30.2,18.0,30.03,SSW,211,1.0,2.0,60,0.00,CLR,,0.00,WeatherDisplay:10.37,2013-02-16 03:45:00,
2013-02-15 22:50:00,30.9,18.3,30.03,SSW,204,0.0,0.0,59,0.00,CLR,,0.00,WeatherDisplay:10.37,2013-02-16 03:50:00,
2013-02-15 22:55:00,31.1,17.6,30.03,SW,217,1.0,2.0,57,0.00,CLR,,0.00,WeatherDisplay:10.37,2013-02-16 03:55:00,
2013-02-15 23:00:00,30.9,17.5,30.03,West,267,1.0,2.0,57,0.00,CLR,,0.00,WeatherDisplay:10.37,2013-02-16 04:00:00,
2013-02-15 23:05:00,31.3,17.8,30.03,West,279,1.0,2.0,57,0.00,CLR,,0.00,WeatherDisplay:10.37,2013-02-16 04:05:00,
2013-02-15 23:10:00,31.6,17.7,30.03,WNW,302,1.0,1.0,56,0.00,CLR,,0.00,WeatherDisplay:10.37,2013-02-16 04:10:00,
2013-02-15 23:15:00,31.8,17.9,30.02,NW,318,0.0,2.0,56,0.00,CLR,,0.00,WeatherDisplay:10.37,2013-02-16 04:15:00,
2013-02-15 23:20:00,32.0,17.6,30.02,NNW,343,0.0,2.0,55,0.00,CLR,,0.00,WeatherDisplay:10.37,2013-02-16 04:20:00,
2013-02-15 23:25:00,32.4,18.4,30.02,East,91,0.0,3.0,56,0.00,CLR,,0.00,WeatherDisplay:10.37,2013-02-16 04:25:00,
2013-02-15 23:30:00,32.2,17.4,30.02,SE,130,0.0,3.0,54,0.00,CLR,,0.00,WeatherDisplay:10.37,2013-02-16 04:30:00,
2013-02-15 23:35:00,32.2,16.9,30.01,SE,135,1.0,3.0,53,0.00,CLR,,0.00,WeatherDisplay:10.37,2013-02-16 04:35:00,
2013-02-15 23:40:00,32.2,16.9,30.01,SE,130,1.0,2.0,53,0.00,CLR,,0.00,WeatherDisplay:10.37,2013-02-16 04:40:00,
2013-02-15 23:45:00,31.6,16.4,30.01,ESE,121,0.0,2.0,53,0.00,CLR,,0.00,WeatherDisplay:10.37,2013-02-16 04:45:00,
2013-02-15 23:50:00,31.1,15.9,30.01,ESE,114,1.0,3.0,53,0.00,CLR,,0.00,WeatherDisplay:10.37,2013-02-16 04:50:00,
2013-02-15 23:55:00,30.6,15.9,30.01,SE,132,1.0,3.0,54,0.00,CLR,,0.00,WeatherDisplay:10.37,2013-02-16 04:55:00,